This demonstration page uses our WeatherBlox Daily Observations layout. Learn more.

Left ArrowRight Arrow

Hourly Observations for May 2, 2017

Temp ( °F °C ) Dew Point ( °F °C ) Humidity (%) Winds ( mph kmh ) Pressure ( in mb ) Visibility ( mi km ) Precip ( " mm )
12:52 am 00:52 Clear 48 8.9 38 3.3 68 68 SSW 10 17 29.90 1012 10 16 0.00 0.00
1:52 am 01:52 Clear 48 8.9 38 3.3 68 68 SSW 9 15 29.89 1012 10 16 0.00 0.00
2:52 am 02:52 Clear 50 10 38 3.3 63 63 SW 10 17 29.88 1012 10 16 0.00 0.00
3:52 am 03:52 Clear 51 10.6 38 3.3 61 61 SSW 12 19 29.88 1012 10 16 0.00 0.00
4:52 am 04:52 Clear 50 10 38 3.3 63 63 SW 10 17 29.89 1012 10 16 0.00 0.00
5:52 am 05:52 Clear 52 11.1 38 3.3 59 59 W 8 13 29.94 1014 10 16 0.00 0.00
6:52 am 06:52 Sunny 52 11.1 38 3.3 59 59 W 9 15 29.96 1014 10 16 0.00 0.00
7:52 am 07:52 Cloudy 54 12.2 41 5 62 62 WSW 5 7 29.98 1015 10 16 0.00 0.00
8:52 am 08:52 Mostly Sunny 57 13.9 43 6.1 60 60 W 6 9 30.00 1016 10 16 0.00 0.00
9:52 am 09:52 Sunny 60 15.6 45 7.2 58 58 W 9 15 30.02 1017 10 16 0.00 0.00
10:52 am 10:52 Sunny 66 18.9 45 7.2 47 47 NNW 12 19 30.02 1017 10 16 0.00 0.00
11:52 am 11:52 Sunny 68 20 44 6.7 42 42 N 6 9 30.03 1017 10 16 0.00 0.00
12:52 pm 12:52 Sunny 69 20.6 40 4.4 35 35 WNW 5 7 30.02 1017 10 16 0.00 0.00
1:52 pm 13:52 Mostly Sunny 68 20 42 5.6 39 39 NW 7 11 30.02 1017 10 16 0.00 0.00
2:52 pm 14:52 Mostly Sunny 70 21.1 44 6.7 39 39 NW 8 13 30.00 1016 10 16 0.00 0.00
3:52 pm 15:52 Sunny 71 21.7 43 6.1 36 36 N 8 13 29.98 1015 10 16 0.00 0.00
4:52 pm 16:52 Sunny 71 21.7 41 5 34 34 ENE 3 6 29.97 1015 10 16 0.00 0.00
5:52 pm 17:52 Sunny 70 21.1 43 6.1 38 38 NNE 5 7 29.96 1015 10 16 0.00 0.00
6:52 pm 18:52 Sunny 67 19.4 44 6.7 44 44 NNE 6 9 29.95 1014 10 16 0.00 0.00
7:52 pm 19:52 Sunny 63 17.2 46 7.8 54 54 NNE 9 15 29.94 1014 10 16 0.00 0.00
8:52 pm 20:52 Clear 62 16.7 43 6.1 50 50 NE 7 11 29.96 1015 10 16 0.00 0.00
9:52 pm 21:52 Clear 60 15.6 43 6.1 53 53 NE 7 11 29.98 1015 10 16 0.00 0.00
10:52 pm 22:52 Partly Cloudy 58 14.4 43 6.1 58 58 NNE 7 11 29.99 1016 10 16 0.00 0.00
11:52 pm 23:52 Cloudy 59 15 42 5.6 54 54 ENE 10 17 29.97 1015 10 16 0.00 0.00

Powered by AerisWeather